GW4974 Weather Reports


time (UTC)temp
F
wind
direction
speed
knots
gust
knots
rain 1hr
in
rain 24hr
in
rain mn
in
humidity
%
barometer
mb
20260506103841 57 242 0.9 2.6 0.02 0.01 0.01 90 1008.4
20260506103339 57 76 0.0 1.7 0.02 0.01 0.01 90 1008.8
20260506102836 57 276 1.7 1.7 0.00 0.01 0.01 89 1008.9
20260506102334 58 306 0.9 1.7 0.02 0.01 0.01 89 1008.6
20260506101831 58 335 0.0 1.7 0.02 0.00 0.00 86 1008.6
20260506101327 59 257 1.7 2.6 0.02 0.00 0.00 82 1008.5
20260506100825 58 204 0.9 3.5 0.00 0.00 0.00 83 1008.4
20260506100323 59 290 1.7 1.7 0.00 0.00 0.00 85 1008.1
20260506095821 59 307 1.7 1.7 0.00 0.00 0.00 81 1008.2
20260506095318 59 106 0.0 1.7 0.00 0.00 0.00 80 1008.4
20260506094815 59 330 0.9 2.6 0.00 0.00 0.00 84 1008.6
20260506094313 60 297 1.7 1.7 0.00 0.00 0.00 81 1008.8
20260506093811 60 333 0.0 2.6 0.00 0.00 0.00 78 1008.6
20260506093308 60 329 0.0 1.7 0.00 0.00 0.00 75 1008.4
20260506092806 60 283 1.7 2.6 0.00 0.00 0.00 76 1008.6
20260506092305 61 343 0.0 1.7 0.00 0.00 0.00 74 1008.5
20260506091800 61 228 0.0 1.7 0.00 0.00 0.00 72 1008.3
20260506091258 62 208 0.0 1.7 0.00 0.00 0.00 71 1008.6
20260506090756 62 260 0.0 1.7 0.00 0.00 0.00 70 1008.6
20260506090252 62 258 0.0 1.7 0.00 0.00 0.00 68 1008.5
20260506085749 62 201 0.0 1.7 0.00 0.00 0.00 68 1008.9
20260506085245 62 233 0.9 1.7 0.00 0.00 0.00 67 1008.9
20260506084742 62 117 0.0 1.7 0.00 0.00 0.00 67 1009.0
20260506084238 63 205 0.0 1.7 0.00 0.00 0.00 67 1009.1
20260506083735 63 274 1.7 2.6 0.00 0.00 0.00 67 1009.1
20260506083233 63 260 0.0 1.7 0.00 0.00 0.00 66 1009.0
20260506082730 63 268 1.7 2.6 0.00 0.00 0.00 66 1009.1
20260506082226 63 248 0.0 2.6 0.00 0.00 0.00 66 1009.2
20260506081724 64 180 0.9 3.5 0.00 0.00 0.00 64 1009.1
20260506081221 64 236 1.7 2.6 0.00 0.00 0.00 64 1009.1
20260506080719 64 202 1.7 3.5 0.00 0.00 0.00 63 1009.1
20260506080215 64 192 0.9 2.6 0.00 0.00 0.00 63 1009.3
20260506073159 65 150 0.0 3.5 0.00 0.00 0.00 59 1009.0
20260506072656 65 238 2.6 4.3 0.00 0.00 0.00 57 1009.1
20260506072154 65 256 1.7 2.6 0.00 0.00 0.00 56 1009.0
20260506071651 66 190 1.7 3.5 0.00 0.00 0.00 54 1009.2
20260506071149 66 180 0.9 2.6 0.00 0.00 0.00 54 1009.1
20260506070645 66 248 1.7 3.5 0.00 0.00 0.00 54 1009.1
20260506070142 66 253 1.7 4.3 0.00 0.00 0.00 53 1009.0
20260506062120 66 178 1.7 3.5 0.00 0.00 0.00 55 1009.3
20260506061615 66 53 2.6 4.3 0.00 0.00 0.00 53 1009.5
20260506061114 66 268 1.7 3.5 0.00 0.00 0.00 54 1009.3
20260506060612 67 14 0.0 1.7 0.00 0.00 0.00 52 1009.3
20260506060108 66 100 0.9 2.6 0.00 0.00 0.00 52 1009.2
20260506051040 63 359 0.9 1.7 0.00 0.00 0.00 65 1009.9
20260506050538 64 314 0.9 1.7 0.00 0.00 0.00 63 1010.0
20260506045029 64 119 0.0 1.7 0.00 0.00 0.00 61 1010.1
20260506044527 63 143 0.0 1.7 0.00 0.00 0.00 62 1010.2
20260506044023 63 23 0.0 1.7 0.00 0.00 0.00 63 1010.2
20260506043520 63 303 0.9 2.6 0.00 0.00 0.00 63 1010.2
20260506043019 62 324 0.0 2.6 0.00 0.00 0.00 64 1010.1
20260506042518 63 296 0.9 1.7 0.00 0.00 0.00 66 1009.9
20260506042015 62 300 0.0 2.6 0.00 0.00 0.00 65 1010.0
20260506041514 62 304 0.9 1.7 0.00 0.00 0.00 67 1010.1
20260506041010 62 259 0.9 1.7 0.00 0.00 0.00 66 1010.0
20260506040508 62 49 0.0 2.6 0.00 0.00 0.00 68 1010.0
20260506040003 62 302 0.0 2.6 0.00 0.00 0.00 67 1010.0
20260506035500 62 319 0.9 1.7 0.00 0.00 0.00 68 1010.1
20260506034957 62 248 0.0 1.7 0.00 0.00 0.00 67 1010.2
20260506034455 62 335 0.0 1.7 0.00 0.00 0.00 70 1009.9
20260506033951 61 317 0.9 1.7 0.00 0.00 0.00 73 1010.0
20260506033449 62 288 0.9 1.7 0.00 0.00 0.00 70 1009.8
20260506032945 62 269 0.0 1.7 0.00 0.00 0.00 69 1009.9
20260506032443 62 190 0.0 0.9 0.00 0.00 0.00 68 1010.0
20260506031939 63 224 0.0 1.7 0.00 0.00 0.00 69 1010.0
20260506031437 64 132 0.0 0.9 0.00 0.00 0.00 64 1010.1
20260506030934 63 306 0.0 1.7 0.00 0.00 0.00 67 1010.0
20260506030432 63 274 0.0 1.7 0.00 0.00 0.00 67 1010.1
20260506025928 63 269 0.0 1.7 0.00 0.00 0.00 67 1010.2
20260506025426 63 110 0.0 1.7 0.00 0.00 0.00 66 1010.2
20260506024922 63 273 0.0 1.7 0.00 0.00 0.00 68 1010.3
20260506024419 62 294 0.0 1.7 0.00 0.00 0.00 68 1010.3
20260506023915 62 287 0.9 2.6 0.00 0.00 0.00 70 1010.3
20260506023412 63 208 0.9 2.6 0.00 0.00 0.00 69 1010.3
20260506022909 64 265 0.0 1.7 0.00 0.00 0.00 67 1010.3
20260506022407 64 269 0.0 0.9 0.00 0.00 0.00 66 1010.5
20260506021904 64 155 0.0 0.9 0.00 0.00 0.00 64 1010.3
20260506021401 64 287 0.9 1.7 0.00 0.00 0.00 66 1010.2
20260506020858 65 252 0.0 0.9 0.00 0.00 0.00 64 1010.3
20260506020356 64 211 0.9 0.9 0.00 0.00 0.00 64 1010.3
20260506015853 63 269 0.9 1.7 0.00 0.00 0.00 66 1010.3
20260506015350 62 294 0.9 1.7 0.00 0.00 0.00 72 1010.4
20260506014847 63 322 0.9 1.7 0.00 0.00 0.00 71 1010.3
20260506014344 64 315 0.0 0.9 0.00 0.00 0.00 68 1010.2
20260506013840 64 269 0.0 0.0 0.00 0.00 0.00 66 1010.3
20260506013338 64 129 0.0 0.0 0.00 0.00 0.00 65 1010.1
20260506012834 65 128 0.0 0.9 0.00 0.00 0.00 64 1010.0
20260506012332 66 104 0.9 1.7 0.00 0.00 0.00 62 1009.9
20260506011829 66 269 0.0 1.7 0.00 0.00 0.00 61 1010.0
20260506011325 66 269 0.9 1.7 0.00 0.00 0.00 62 1010.1
20260506010823 66 331 0.9 1.7 0.00 0.00 0.00 65 1009.9
20260506010320 66 102 0.0 0.9 0.00 0.00 0.00 64 1010.0
20260506005817 66 274 0.0 2.6 0.00 0.00 0.00 63 1010.0
20260506005314 65 351 0.9 1.7 0.00 0.00 0.00 64 1009.8
20260506004810 65 223 0.0 1.7 0.00 0.00 0.00 66 1009.9
20260506004308 65 253 0.0 0.9 0.00 0.00 0.00 66 1009.7
20260506003803 66 221 0.0 0.9 0.00 0.00 0.00 65 1009.7
20260506003300 66 269 0.0 1.7 0.00 0.00 0.00 63 1009.7
20260506002756 67 246 0.0 0.9 0.00 0.00 0.00 63 1009.8
20260506002253 67 263 1.7 1.7 0.00 0.00 0.00 62 1009.8
20260506001749 67 275 0.9 1.7 0.00 0.00 0.00 62 1009.7
20260506001246 68 110 0.9 1.7 0.00 0.00 0.00 60 1009.7
20260506000743 68 292 0.9 1.7 0.00 0.00 0.00 60 1009.6
20260506000241 69 265 0.0 0.9 0.00 0.00 0.00 59 1009.5
20260505235737 69 252 0.0 1.7 0.00 0.00 0.00 58 1009.4
20260505235235 69 258 0.9 1.7 0.00 0.00 0.00 58 1009.5
20260505234732 69 230 0.0 0.9 0.00 0.00 0.00 57 1009.4
20260505234229 69 126 0.0 0.9 0.00 0.00 0.00 57 1009.4
20260505233726 69 126 0.0 0.0 0.00 0.00 0.00 57 1009.4
20260505233224 69 227 0.0 0.0 0.00 0.00 0.00 58 1009.5
20260505232721 70 238 0.9 1.7 0.00 0.00 0.00 57 1009.3
20260505232218 70 222 0.0 0.0 0.00 0.00 0.00 57 1009.3
20260505231715 70 210 0.0 1.7 0.00 0.00 0.00 56 1009.5
20260505231214 70 217 0.0 0.9 0.00 0.00 0.00 57 1009.3
20260505230711 70 262 1.7 1.7 0.00 0.00 0.00 60 1009.4
20260505230208 70 241 0.0 0.9 0.00 0.00 0.00 60 1009.5
20260505225704 70 222 0.9 0.9 0.00 0.00 0.00 61 1009.4
20260505225201 70 224 0.0 0.9 0.00 0.00 0.00 60 1009.5
20260505224656 70 217 0.0 0.9 0.00 0.00 0.00 61 1009.5
20260505224155 70 227 0.0 0.9 0.00 0.00 0.00 62 1009.5
20260505223652 70 230 0.0 0.0 0.00 0.00 0.00 62 1009.3
20260505223147 70 129 0.9 1.7 0.00 0.00 0.00 61 1009.4
20260505222644 70 216 0.9 1.7 0.00 0.00 0.00 62 1009.5
20260505222140 70 148 0.9 0.9 0.00 0.00 0.00 61 1009.5
20260505221632 70 103 0.9 1.7 0.00 0.00 0.00 65 1009.6
20260505221129 70 144 0.9 1.7 0.00 0.00 0.00 69 1009.7
20260505220626 70 200 0.0 4.3 0.00 0.00 0.00 66 1009.5
20260505220123 69 147 0.0 0.9 0.00 0.00 0.00 67 1009.5
20260505215621 69 155 0.0 2.6 0.00 0.00 0.00 66 1009.7
20260505215119 69 196 0.0 1.7 0.00 0.00 0.00 67 1009.5
20260505214617 69 214 1.7 1.7 0.00 0.00 0.00 66 1009.6
20260505214114 69 213 1.7 1.7 0.00 0.00 0.00 66 1009.8
20260505213612 68 140 1.7 1.7 0.00 0.00 0.00 68 1009.8
20260505213108 68 148 1.7 1.7 0.00 0.00 0.00 66 1009.6
20260505212604 69 147 0.0 0.0 0.00 0.00 0.00 67 1009.7
20260505212102 69 120 1.7 1.7 0.00 0.00 0.00 61 1009.7
20260505211558 69 271 1.7 1.7 0.00 0.00 0.00 62 1009.7
20260505211055 69 245 1.7 3.5 0.02 0.00 0.00 65 1009.6
20260505210551 69 231 2.6 3.5 0.02 0.00 0.00 64 1009.7
20260505210049 72 133 0.0 3.5 0.00 0.00 0.00 54 1009.5
20260505205546 74 237 1.7 1.7 0.00 0.00 0.00 48 1009.6
20260505205044 74 249 1.7 2.6 0.00 0.00 0.00 45 1009.1
20260505204541 74 155 0.0 2.6 0.00 0.00 0.00 46 1008.9
20260505204038 75 205 0.0 0.9 0.00 0.00 0.00 45 1008.9
20260505203534 75 286 0.0 3.5 0.00 0.00 0.00 43 1009.0
20260505203032 75 263 1.7 2.6 0.00 0.00 0.00 43 1008.9
20260505202528 75 163 0.9 3.5 0.00 0.00 0.00 45 1008.9
20260505202023 75 17 0.0 1.7 0.00 0.00 0.00 44 1009.0
20260505201521 74 227 1.7 1.7 0.00 0.00 0.00 48 1009.1
20260505201018 74 132 1.7 2.6 0.00 0.00 0.00 49 1009.2
20260505200516 74 129 0.0 1.7 0.00 0.00 0.00 46 1009.1
20260505200013 74 223 1.7 6.1 0.00 0.00 0.00 45 1009.0
20260505195509 75 234 2.6 2.6 0.00 0.00 0.00 46 1009.0
20260505195007 75 131 0.0 1.7 0.00 0.00 0.00 43 1009.1
20260505194459 75 131 1.7 1.7 0.00 0.00 0.00 43 1009.1
20260505193958 74 218 0.0 2.6 0.00 0.00 0.00 46 1009.1
20260505193456 74 232 1.7 4.3 0.00 0.00 0.00 45 1009.1
20260505192953 75 187 1.7 2.6 0.00 0.00 0.00 43 1009.1
20260505192451 75 230 1.7 4.3 0.00 0.00 0.00 41 1009.2
20260505191948 76 218 2.6 5.2 0.00 0.00 0.00 39 1009.1
20260505191447 76 191 3.5 5.2 0.00 0.00 0.00 38 1009.0
20260505190944 76 266 1.7 5.2 0.00 0.00 0.00 39 1008.9
20260505190439 76 184 1.7 4.3 0.00 0.00 0.00 39 1009.0
20260505185935 77 197 3.5 6.1 0.00 0.00 0.00 38 1008.9
20260505185433 77 103 1.7 3.5 0.00 0.00 0.00 39 1008.9
20260505184928 77 206 1.7 5.2 0.00 0.00 0.00 38 1008.8
20260505184426 77 215 2.6 5.2 0.00 0.00 0.00 39 1008.9
20260505183922 77 120 2.6 4.3 0.00 0.00 0.00 40 1009.0
20260505183419 76 115 3.5 7.0 0.00 0.00 0.00 39 1008.9
20260505182916 76 119 3.5 10.4 0.00 0.00 0.00 38 1008.8
20260505182412 77 102 4.3 5.2 0.00 0.00 0.00 38 1008.6
20260505181908 79 227 3.5 7.8 0.00 0.00 0.00 38 1009.0
20260505181406 80 137 3.5 6.1 0.00 0.00 0.00 35 1009.0
20260505180902 79 84 1.7 6.1 0.00 0.00 0.00 38 1009.2
20260505180359 78 60 1.7 3.5 0.00 0.00 0.00 38 1009.3
20260505175855 78 134 3.5 3.5 0.00 0.00 0.00 37 1009.2
20260505175352 79 153 1.7 4.3 0.00 0.00 0.00 38 1009.3
20260505174848 78 111 1.7 5.2 0.00 0.00 0.00 38 1009.6
20260505174346 78 182 0.9 6.1 0.00 0.00 0.00 39 1009.5
20260505173842 80 170 1.7 4.3 0.00 0.00 0.00 38 1009.5
20260505173339 79 326 1.7 7.8 0.00 0.00 0.00 38 1009.6
20260505172836 79 206 5.2 7.8 0.00 0.00 0.00 38 1009.4
20260505172334 79 111 1.7 4.3 0.00 0.00 0.00 40 1009.6
20260505171833 78 97 7.0 9.6 0.00 0.00 0.00 39 1009.7
20260505171330 78 148 3.5 4.3 0.00 0.00 0.00 43 1009.8
20260505170826 77 224 1.7 4.3 0.00 0.00 0.00 46 1009.7
20260505170323 76 86 2.6 6.1 0.00 0.00 0.00 42 1009.7
20260505165819 77 260 5.2 5.2 0.00 0.00 0.00 41 1009.9
20260505165314 77 259 1.7 3.5 0.00 0.00 0.00 42 1009.7
20260505164810 76 189 2.6 4.3 0.00 0.00 0.00 43 1009.7
20260505164308 76 147 4.3 4.3 0.00 0.00 0.00 43 1009.8
20260505163806 78 106 3.5 3.5 0.00 0.00 0.00 42 1010.0
20260505163304 76 180 0.0 5.2 0.00 0.00 0.00 45 1009.9
20260505162802 75 246 2.6 7.8 0.00 0.00 0.00 44 1010.0
20260505162258 75 268 3.5 6.1 0.00 0.00 0.00 44 1009.8
20260505161755 75 138 2.6 6.1 0.00 0.00 0.00 45 1009.9
20260505161252 76 130 2.6 5.2 0.00 0.00 0.00 45 1010.0
20260505160750 76 235 3.5 5.2 0.00 0.00 0.00 44 1010.1
20260505160247 78 129 4.3 4.3 0.00 0.00 0.00 42 1010.3
20260505153226 77 127 4.3 4.3 0.00 0.00 0.00 46 1010.8
20260505152724 77 204 1.7 7.0 0.00 0.00 0.00 45 1010.6
20260505152220 77 247 5.2 9.6 0.00 0.00 0.00 44 1010.6
20260505151714 76 225 2.6 7.8 0.00 0.00 0.00 45 1010.5
20260505151212 76 71 1.7 5.2 0.00 0.00 0.00 47 1010.5
20260505150708 75 224 4.3 4.3 0.00 0.00 0.00 49 1010.4
20260505150206 75 284 2.6 3.5 0.00 0.00 0.00 51 1010.3
20260505140639 72 269 2.6 8.7 0.00 0.00 0.00 52 1010.4
20260505140136 72 111 1.7 6.1 0.00 0.00 0.00 53 1010.1
20260505124549 67 234 0.9 5.2 0.00 0.00 0.00 58 1010.4
20260505124045 67 67 1.7 3.5 0.00 0.00 0.00 59 1010.4
20260505123542 66 153 1.7 3.5 0.00 0.00 0.00 60 1010.3
20260505123038 66 227 0.9 3.5 0.00 0.00 0.00 61 1010.5
20260505122535 66 80 0.0 3.5 0.00 0.00 0.00 61 1010.6
20260505122032 65 177 0.0 2.6 0.00 0.00 0.00 65 1010.6
20260505121528 64 131 1.7 2.6 0.00 0.00 0.00 65 1010.6
20260505121025 64 204 0.9 3.5 0.00 0.00 0.00 65 1010.7
20260505120522 63 125 1.7 3.5 0.00 0.00 0.00 66 1010.9
20260505120017 63 54 0.0 3.5 0.00 0.00 0.00 66 1010.8
20260505115512 63 178 1.7 1.7 0.00 0.00 0.00 67 1010.7
20260505115010 63 187 3.5 3.5 0.00 0.00 0.00 67 1010.8
20260505114507 63 278 0.0 2.6 0.00 0.00 0.00 67 1010.7
20260505114003 63 156 0.9 1.7 0.00 0.00 0.00 66 1010.6
20260505113500 63 241 0.0 2.6 0.00 0.00 0.00 66 1010.7
20260505112955 63 136 0.9 2.6 0.00 0.00 0.00 64 1010.5
20260505112453 63 140 4.3 4.3 0.00 0.00 0.00 63 1010.5
20260505111950 63 124 1.7 2.6 0.00 0.00 0.00 65 1010.7
20260505111449 63 266 3.5 3.5 0.00 0.00 0.00 65 1010.5
20260505110946 62 125 1.7 3.5 0.00 0.00 0.00 65 1010.6
20260505110443 62 73 0.0 3.5 0.00 0.00 0.00 65 1010.5